Regional Weather Roundup
Issued by NWS

Home | Current Version | Previous Version | Text Only | Print | Product List | Glossary On
Versions: 1 2 3 4 5 6 7 8 9 10 11 12 13 14 15 16 17 18 19 20 21 22 23 24 25 26 27
000
ASUS45 KBOU 210407
RWRCO

WEATHER ROUNDUP FOR COLORADO
NATIONAL WEATHER SERVICE DENVER/BOULDER CO
1000 PM MDT WED SEP 20 2017

NOTE: "FAIR" INDICATES FEW OR NO CLOUDS BELOW 12000 FEET WITH NO
SIGNIFICANT WEATHER AND/OR OBSTRUCTIONS TO VISIBILITY.

COZ001>005-013-030-031-210500-
...NORTHWEST COLORADO...

CITY           SKY/WX    TMP DP  RH WIND       PRES   REMARKS
CRAIG          FAIR      54  35  48 E3        29.86S
HAYDEN         FAIR      55  35  47 E9        29.90F
MEEKER         FAIR      58  33  39 VRB7      29.87F
RABBIT EARS PA FAIR      46  27  46 SW12G29   30.15F
STEAMBOAT SPGS FAIR      55  35  47 E7        29.92S
WALDEN         FAIR      45  30  57 SE7       30.01F
$$

COZ006>008-011-210500-
...WEST CENTRAL VALLEYS...

CITY           SKY/WX    TMP DP  RH WIND       PRES   REMARKS
GRAND JUNCTION FAIR      65  30  27 SE9       29.79S
MONTROSE       FAIR      64  29  26 SE8       29.93S
EAGLE          FAIR      57  30  35 E12       29.95S
RIFLE          FAIR      67  27  22 S10       29.85S
DELTA          FAIR      66  31  27 NE7       29.87S
NUCLA          NOT AVBL
$$

COZ017>023-064>068-210500-
...SOUTHWEST COLORADO...

CITY           SKY/WX    TMP DP  RH WIND       PRES   REMARKS
DURANGO        FAIR      51  31  46 NE6       30.04R
CORTEZ         FAIR      54  33  45 NE6       29.96R
PAGOSA SPRINGS FAIR      51  29  43 CALM      30.12R
TELLURIDE      FAIR      60  23  24 S13G21    30.16F
WOLF CREEK PAS FAIR      43  21  42 S24G36    30.37F
$$

COZ009-010-012-014-032>034-037-058>063-210500-
...CENTRAL COLORADO...

CITY           SKY/WX    TMP DP  RH WIND       PRES   REMARKS
ASPEN          FAIR      53  28  38 S7        30.03S
BUENA VISTA    FAIR      56  24  29 CALM      30.05S
COPPER MTN     FAIR      46   9  21 W6G21     30.31R
BERTHOUD PASS  FAIR      41  32  70 W13G24    30.32S
COTTONWOOD PAS FAIR      61  21  21 SW12      30.18S
GUNNISON       FAIR      52  30  43 N8        30.07R
KREMMLING      FAIR      66  23  19 SW14G20   29.98S
LEADVILLE      FAIR      49  14  24 SE9       30.15S
MONARCH PASS   FAIR      43  21  42 SW38G46   30.41S
SALIDA         FAIR      64  24  21 SW10G17   30.10S
SUNLIGHT       FAIR      43  23  45 SW16G32   30.21S
WILKERSON PASS FAIR      43  23  45 S10G18    30.28S
$$

COZ069>075-210500-
...SAN LUIS VALLEY/SANGRE DE CRISTO MOUNTAINS...

CITY           SKY/WX    TMP DP  RH WIND       PRES   REMARKS
ALAMOSA        FAIR      51  26  37 S10       30.09S
DEL NORTE      FAIR      49  27  42 W10       30.12S
LA VETA PASS   FAIR      52  21  30 MISG      30.33R
SAGUACHE       FAIR      54  28  37 NW3       30.11R
$$

COZ035-036-038>040-210500-
...NORTHERN COLORADO FRONT RANGE...

CITY           SKY/WX    TMP DP  RH WIND       PRES   REMARKS
DENVER INTL AP FAIR      62  28  27 S15       29.86S
DMNS CITY PARK   N/A     63  33  32 E7        29.85S
AURORA         CLEAR     64  30  27 S22       29.86F
FRONT RANGE AP FAIR      61  30  31 S10G18    29.89S
ERIE MUNI ARPT FAIR      57  34  41 SW3       29.89S
BOULDER MUN AP FAIR      61  32  33 SW5       29.84S
CENTENNIAL     FAIR      64  30  27 S15G25    29.89F
BROOMFIELD     CLEAR     61  32  33 SW5       29.88S
FORT COLLINS   FAIR      57  39  51 N8        29.83S
LONGMONT       FAIR      55  38  52 CALM      29.85S
$$

COZ041-046-047-076>085-087-088-210500-
...PIKES PEAK/PALMER DIVIDE AND SOUTHERN FOOTHILLS...

CITY           SKY/WX    TMP DP  RH WIND       PRES   REMARKS
COLO. SPRINGS  FAIR      58  33  39 VRB3      29.98F
A. F. ACADEMY  FAIR      57  30  35 S7        29.99S
SCHRIEVER AFB  FAIR      54  33  45 NE5       29.98F
CHEYENNE MTN   FAIR      57  31  37 SW3       29.97S
ELLICOTT         N/A    N/A N/A N/A SE13G23   29.95S
FALCON         FAIR      52  32  46 CALM      30.03R
FORT CARSON    FAIR      54  32  42 N5        29.94F
LIMON          FAIR      56  33  42 SE14      29.93S
MONUMENT HILL  FAIR      54  32  43 S23G29    30.00S
CANON CITY     CLEAR     61  34  36 CALM      29.92S
WALSENBURG     FAIR      61  32  33 CALM      29.96S
TRINIDAD       FAIR      64  34  32 SW10      29.97R
$$

COZ042>045-048>051-090-091-210500-
...NORTHEAST COLORADO...

CITY           SKY/WX    TMP DP  RH WIND       PRES   REMARKS
GREELEY ARPT   FAIR      60  33  36 SE13      29.83S
AKRON          FAIR      55  30  38 SE13      29.90R
BURLINGTON     FAIR      58  35  42 S9        29.92S
WRAY           FAIR      57  32  38 SE7       29.90R
YUMA           FAIR      54  34  47 SE6       29.89S
STERLING       FAIR      63  34  34 S12       29.86S
HOLYOKE        NOT AVBL
FORT MORGAN    FAIR      56  29  34 E9        29.88S
$$

COZ086-089-092>099-210500-
...SOUTHEAST COLORADO...

CITY           SKY/WX    TMP DP  RH WIND       PRES   REMARKS
PUEBLO         FAIR      62  35  36 N7        29.86R
LA JUNTA       FAIR      62  38  40 E12       29.86S
LAMAR          FAIR      60  38  43 E3        29.87S
SPRINGFIELD      N/A     57  44  62 S13       29.94R
$$




USA.gov is the U.S. government's official web portal to all federal, state and local government web resources and services.